Terminal Aerodrome Forecast
Issued by NWS

Home | Current Version | Previous Version | Text Only | Print | Product List | Glossary On
Versions: 1 2 3 4 5 6 7 8 9 10 11 12 13 14 15 16 17 18
000
FTUS45 KVEF 231135
TAFDAG
TAF
KDAG 231135Z 2312/2412 25018G26KT P6SM SCT110
     FM231800 26020G30KT P6SM FEW080 SCT200
     FM240300 25015KT P6SM SKC=

USA.gov is the U.S. government's official web portal to all federal, state and local government web resources and services.